Location: Appleton
(44.2618°N, 88.4157°W)
Time: 15:52:58
(UTC+00:00)

Tiros 1 despin weight - All Passes

Search period start: 26 February 2021 00:00
Search period end: 08 March 2021 00:00
Orbit: 593 x 642 km, 48.2° (Epoch: 25 February)

Date Brightness Start Highest point End Pass type
(mag) Time Alt. Az. Time Alt. Az. Time Alt. Az.
26 Feb - 07:03:16 10° SSW 07:07:31 37° SE 07:11:49 10° ENE night (unlit)
26 Feb - 08:44:17 10° WSW 08:48:55 73° NNW 08:53:37 10° ENE visible
26 Feb - 10:26:18 10° WNW 10:30:53 52° N 10:35:29 10° E visible
26 Feb - 12:08:03 10° WNW 12:12:46 87° NNE 12:17:28 10° ESE visible
26 Feb - 13:50:02 10° W 13:54:00 27° SW 13:57:56 10° SSE daylight
27 Feb - 05:40:15 10° SSE 05:42:51 15° SE 05:45:29 10° E night (unlit)
27 Feb - 07:19:11 10° SW 07:23:44 62° SSE 07:28:21 10° ENE night (unlit)
27 Feb - 09:00:49 10° W 09:05:25 58° N 09:10:04 10° ENE visible
27 Feb - 10:42:48 10° WNW 10:47:25 58° N 10:52:04 10° E visible
27 Feb - 12:24:28 10° WNW 12:29:07 62° SSW 12:33:44 10° SE daylight
27 Feb - 14:07:18 10° W 14:10:01 15° SW 14:12:43 10° S daylight
28 Feb - 05:55:01 10° SSW 05:58:52 27° SE 06:02:47 10° E night (unlit)
28 Feb - 07:35:27 10° WSW 07:40:05 87° NNW 07:44:47 10° ENE night (unlit)
28 Feb - 09:17:24 10° W 09:21:58 52° N 09:26:34 10° ENE visible
28 Feb - 10:59:14 10° WNW 11:03:56 73° NNE 11:08:37 10° ESE visible
28 Feb - 12:41:00 10° WNW 12:45:20 38° SW 12:49:39 10° SSE daylight
01 Mar - 06:10:38 10° SW 06:15:00 46° SSE 06:19:28 10° ENE night (unlit)
01 Mar - 07:51:55 10° W 07:56:32 65° NNW 08:01:11 10° ENE visible
01 Mar - 09:33:56 10° WNW 09:38:31 53° N 09:43:08 10° E visible
01 Mar - 11:15:38 10° WNW 11:20:20 81° SSW 11:25:02 10° ESE visible
01 Mar - 12:57:51 10° W 13:01:26 22° SW 13:05:00 10° S daylight
02 Mar - 04:47:02 10° S 04:50:16 19° SE 04:53:32 10° E night (unlit)
02 Mar - 06:26:42 10° WSW 06:31:17 75° SSE 06:35:56 10° ENE night (unlit)
02 Mar - 08:08:29 10° W 08:13:03 54° N 08:17:39 10° ENE visible
02 Mar - 09:50:24 10° WNW 09:55:03 63° NNE 09:59:43 10° E visible
02 Mar - 11:32:04 10° WNW 11:36:38 51° SSW 11:41:10 10° SE visible
02 Mar - 13:15:47 10° WSW 13:17:24 12° SW 13:19:01 10° SSW daylight
03 Mar - 05:02:14 10° SSW 05:06:19 34° SE 05:10:29 10° ENE night (unlit)
03 Mar - 06:43:04 10° WSW 06:47:40 76° NNW 06:52:21 10° ENE night (unlit)
03 Mar - 08:25:03 10° WNW 08:29:36 52° N 08:34:11 10° ENE visible
03 Mar - 10:06:48 10° WNW 10:11:30 82° NNE 10:16:12 10° ESE visible
03 Mar - 11:48:42 10° W 11:52:48 30° SW 11:56:53 10° SSE visible
04 Mar - 03:39:36 10° SSE 03:41:43 13° SE 03:43:49 10° ESE night (unlit)
04 Mar - 05:18:03 10° SW 05:22:31 57° SSE 05:27:04 10° ENE night (unlit)
04 Mar - 06:59:35 10° W 07:04:09 59° N 07:08:46 10° ENE night (unlit)
04 Mar - 08:41:34 10° WNW 08:46:09 56° N 08:50:46 10° E visible
04 Mar - 10:23:13 10° WNW 10:27:53 68° SSW 10:32:32 10° SE visible
04 Mar - 12:05:48 10° W 12:08:50 17° SW 12:11:52 10° S daylight
05 Mar - 03:54:03 10° SSW 03:57:42 24° SE 04:01:23 10° E night (unlit)
05 Mar - 05:34:16 10° WSW 05:38:50 88° SSE 05:43:30 10° ENE night (unlit)
05 Mar - 07:16:10 10° W 07:20:40 52° N 07:25:15 10° ENE night (unlit)
05 Mar - 08:58:00 10° WNW 09:02:39 69° NNE 09:07:20 10° E visible
05 Mar - 10:39:43 10° WNW 10:44:07 41° SW 10:48:31 10° SE visible
06 Mar - 04:09:32 10° SW 04:13:48 42° SE 04:18:08 10° ENE night (unlit)
06 Mar - 05:50:42 10° W 05:55:15 68° NNW 05:59:54 10° ENE night (unlit)
06 Mar - 07:32:42 10° WNW 07:37:13 52° N 07:41:48 10° E night (unlit)
06 Mar - 09:14:24 10° WNW 09:19:04 86° SSW 09:23:46 10° ESE visible
06 Mar - 10:56:28 10° W 11:00:14 24° SW 11:04:00 10° SSE visible
07 Mar - 02:46:13 10° S 02:49:07 17° SE 02:52:01 10° E night (unlit)
07 Mar - 04:25:33 10° SW 04:30:02 69° SSE 04:34:38 10° ENE night (unlit)
07 Mar - 06:07:15 10° W 06:11:46 55° N 06:16:21 10° ENE night (unlit)
07 Mar - 07:49:10 10° WNW 07:53:45 60° NNE 07:58:23 10° E night (unlit)
07 Mar - 09:30:49 10° WNW 09:35:23 56° SSW 09:39:58 10° SE visible
07 Mar - 11:14:02 10° WSW 11:16:13 13° SW 11:18:25 10° SSW visible
